This is the latest recevied weather packets stored in our database for station/object DJ5CM-10. If no packets are shown the sender has not sent any weather packets the latest 10 day(s).
| Time | Temp. | Humidity | Pressure | Rain* | Wind** | Luminosity | Snow |
|---|---|---|---|---|---|---|---|
| 1777991891 | 16.11° C | 57% | 1010.4 hPa | - | - | - | - |
| 1777990991 | 16.11° C | 57% | 1010.3 hPa | - | - | - | - |
| 1777989191 | 16.11° C | 59% | 1010.4 hPa | - | - | - | - |
| 1777988291 | 16.67° C | 59% | 1010.5 hPa | - | - | - | - |
| 1777987391 | 16.67° C | 61% | 1010.5 hPa | - | - | - | - |
| 1777986491 | 16.67° C | 62% | 1010.5 hPa | - | - | - | - |
| 1777985590 | 16.67° C | 64% | 1010.6 hPa | - | - | - | - |
| 1777984690 | 16.67° C | 65% | 1010.7 hPa | - | - | - | - |
| 1777983790 | 16.67° C | 67% | 1010.8 hPa | - | - | - | - |
| 1777982890 | 16.11° C | 68% | 1010.7 hPa | - | - | - | - |
| 1777981990 | 15.56° C | 69% | 1010.8 hPa | - | - | - | - |
| 1777981090 | 15.56° C | 70% | 1010.8 hPa | - | - | - | - |
| 1777980190 | 15° C | 70% | 1011 hPa | - | - | - | - |
| 1777979290 | 14.44° C | 72% | 1010.9 hPa | - | - | - | - |
| 1777978390 | 14.44° C | 73% | 1011.1 hPa | - | - | - | - |
| 1777977490 | 13.89° C | 73% | 1011.1 hPa | - | - | - | - |
| 1777976589 | 13.89° C | 74% | 1011.3 hPa | - | - | - | - |
| 1777975689 | 13.89° C | 76% | 1011.3 hPa | - | - | - | - |
| 1777974789 | 13.33° C | 77% | 1011.5 hPa | - | - | - | - |
| 1777973889 | 12.78° C | 77% | 1011.5 hPa | - | - | - | - |
| 1777972989 | 12.78° C | 78% | 1011.5 hPa | - | - | - | - |
| 1777972089 | 11.67° C | 77% | 1011.6 hPa | - | - | - | - |
| 1777971188 | 12.22° C | 78% | 1011.7 hPa | - | - | - | - |
| 1777970288 | 11.67° C | 79% | 1011.5 hPa | - | - | - | - |
| 1777969388 | 11.11° C | 79% | 1011.5 hPa | - | - | - | - |
* Rain since midnight (hover to see other rain measurements)
** Current wind speed in m/s (hover to see current wind gust speed)